FENGYUN 1C DEB

Satellite information

Favourite Embed

Satellite Type and Status

DEBRISIN ORBIT

Key statistics

Satellite FENGYUN 1C DEB at a glance.

Uptime

9556

Days in orbit

Revolutions

≈ 14.8

Per day

Orbit

SSO

Sun Synchronous Orbit

Inclination

99.2

Latest

Satellite identification and parameters

Extended collection of information and parameters for FENGYUN 1C DEB.

Object identification

Identified? True

Debris? True

Object name: FENGYUN 1C DEB

International designator: 1999-025QY

Object number (NORAD): 30095

Object ID (CCSDS): 30095

Country: PEOPLES REPUBLIC OF CHINA (PRC)

Current information (Y/N): Y

RCS size: SMALL

Orbital parameters

Period: 97.548 minutes

Inclination: 99.2264 deg

SMA: 7019.485 km

Apoapsis: 769.423 km

Periapsis: 513.278 km

RAAN: 85.2301 deg

Eccentricy: 0.0182453

Argument of periapsis: 109.0561 deg

Mean anomaly: 253.0504 deg

Mean motion: 14.76198839 rev/day

Mean motion (dot): 0.00009418 rev/day2

B* drag term: 0.0010424 1/REarth

Two-line elements (TLE)

Creation date: July 6, 2025, 6:05 p.m.

Reference frame: TEME

Reference center: EARTH

Epoch: July 6, 2025, 5:49 a.m. UTC

TLE line 0: 0 FENGYUN 1C DEB

TLE line 1: 1 30095U 99025QY 25187.24305036 .00009418 00000-0 10424-2 0 9993

TLE line 2: 2 30095 99.2264 85.2301 0182453 109.0561 253.0504 14.76198839969789

Live tracking on map

Real-time ground track for satellite FENGYUN 1C DEB.

In-orbit conjunctions

A list of the most updated potential collisions computed for object FENGYUN 1C DEB.

Target Orbit TCA Probability of collision Miss distance Type
COROT SSO 2025-02-08 07:11:24 0.0003041218 902.0 (m) PAYLOAD
CZ-6A DEB LEO 2024-12-14 09:15:21 0.0001169425 645.0 (m) DEBRIS
CZ-6A DEB LEO 2024-10-26 19:03:29 0.0001611039 443.0 (m) DEBRIS
CZ-6A DEB LEO 2024-10-21 12:54:11 0.0003665024 270.0 (m) DEBRIS
CZ-4 DEB SSO 2024-09-28 12:49:28 0.0002199664 697.0 (m) DEBRIS

Associated space launch

Chinese polar orbiting meteorological satellite

FENGYUN 1C DEB was lifted into orbit during the mission ‘Long March 4B | Feng Yun 1C’, on board a Long March 4B space rocket.

The launch took place on May 10, 1999, 1:33 a.m. from Launch Complex 7.

For more information about the launch, click the button.

Launch to space Long March 4B | Feng Yun 1C
Long March 4B | Feng Yun 1C

Agency: N/A

Status: Launch Successful

Launch date: May 10, 1999, 1:33 a.m. UTC

Rocket: Long March 4B

Launch pad: Launch Complex 7

Location: Taiyuan Satellite Launch Center, People's Republic of China

...

Latest news about this satellite

There are no fresh news available about this satellite. Check back as we update our databases every day.


Newsletter sign-up

Weekly statistics, charts and insights to help you stay on top of the space industry.